We konden geen weer-waarchuwingen ophalen. Ga rechtstreeks naar de Meteoalarm site : www.meteoalarm.eu en controleer daar .



Onweer radar Meer informatie blitzortung!


Regen radar Meer informatie rain snow radar


Bezoek onze andere website:

Template documentation
and downloads

And another site



15 daagse weersverwachting Dübendorf (CH)

  • Overzicht
  • Per uur
  • 15 dagen
  • Extra
  • Vergelijk
  • Kaarten
  • Dagkaart
  • Meer »
  • Info
  • Statistieken
  • Directe link
    Temp 6h Neerslag Wind  
 06:27     20:32    Daglengte: 14:05 Vandaag
02:00
18°
 
1
08:00
17°
 
1
14:00
21°
 
2
20:00
20°
24.8 mm
2
warningclass
 06:29     20:30    Daglengte: 14:01 Morgen
02:00
18°
 
2
warningclass
08:00
17°
61.3 mm
2
14:00
20°
60.5 mm
2
20:00
20°
125.2 mm
2
 06:30     20:28    Daglengte: 13:58 Zaterdag 20 Aug
02:00
17°
151.0 mm
2
08:00
17°
133.8 mm
2
14:00
21°
32.6 mm
3
20:00
20°
165.2 mm
2
Locatie info
Region: Uster
Latitude: 47.3998°N
Longitude: 8.6222°E
436 masl
Postcode: 8600
Temp/Neerslag /Baro Onweer/Dauwpunt
    Temp Baro 1h Neerslag Dauwpunt Wind UV Bewolking  
 06:27     20:32    Daglengte: 14:05 Vandaag
01:00
19°
1012.5 hPa
49%
18.0°
2
Windvlaag: -0.3 m/s
48%
02:00
18°
1012.3 hPa
60%
17.7°
1
Windvlaag: -0.5 m/s
22%
03:00
18°
1012.1 hPa
16%
17.2°
2
Windvlaag: -0.9 m/s
25%
04:00
17°
1011.8 hPa
18%
16.7°
2
Windvlaag: -1.5 m/s
39%
05:00
17°
1011.5 hPa
20%
16.3°
2
Windvlaag: -1.5 m/s
39%
06:00
17°
1011.4 hPa
15%
15.8°
2
Windvlaag: -1.6 m/s
61%
07:00
17°
1011.3 hPa
14%
16.1°
1
Windvlaag: -1.8 m/s
84%
08:00
17°
1011.6 hPa
15%
16.1°
1
Windvlaag: -1.4 m/s
73%
09:00
18°
1011.7 hPa
17%
16.8°
1
Windvlaag: -1 m/s
86%
10:00
19°
1011.7 hPa
17%
17.2°
1
Windvlaag: -1.4 m/s
86%
11:00
19°
1012.0 hPa
22%
17.6°
1
Windvlaag: -1.6 m/s
86%
12:00
20°
1011.9 hPa
60%
17.8°
1
Windvlaag: -2.4 m/s
86%
13:00
21°
1011.6 hPa
28%
18.0°
2
Windvlaag: -1.3 m/s
84%
14:00
21°
1011.6 hPa
81%
18.3°
2
Windvlaag: 0.3 m/s
85%
15:00
21°
1011.3 hPa
82%
18.4°
2
Windvlaag: 1.1 m/s
83%
16:00
21°
1011.1 hPa 3.8 mm
79%
18.1°
2
Windvlaag: 1.8 m/s
84%
17:00
22°
1011.0 hPa 4.2 mm
82%
17.8°
2
Windvlaag: 2 m/s
70% warningclass
18:00
21°
1011.0 hPa 7.9 mm
82%
17.6°
1
Windvlaag: 2 m/s
60% warningclass
19:00
20°
1011.1 hPa 9.0 mm
82%
17.0°
2
Windvlaag: 2.7 m/s
84% warningclass
20:00
20°
1011.3 hPa
82%
17.1°
2
Windvlaag: 0.7 m/s
85% warningclass
21:00
19°
1011.9 hPa
82%
17.0°
1
Windvlaag: 0.7 m/s
81% warningclass
22:00
19°
1012.3 hPa
82%
16.9°
1
Windvlaag: 1.3 m/s
77%
23:00
19°
1012.7 hPa
82%
16.7°
1
Windvlaag: 1.6 m/s
84%
 06:29     20:30    Daglengte: 14:01 Morgen
00:00
18°
1012.8 hPa
81%
16.7°
1
Windvlaag: 1.4 m/s
83% warningclass
01:00
18°
1012.8 hPa
82%
17.0°
1
Windvlaag: 2.6 m/s
77%
02:00
18°
1012.7 hPa
82%
17.4°
2
Windvlaag: 2.4 m/s
51% warningclass
03:00
18°
1012.6 hPa 9.0 mm
82%
17.5°
2
Windvlaag: 2.4 m/s
85% warningclass
04:00
18°
1012.6 hPa 9.4 mm
82%
17.2°
2
Windvlaag: 1.9 m/s
86% warningclass
05:00
17°
1012.7 hPa 9.6 mm
82%
17.0°
1
Windvlaag: 1.7 m/s
86%
06:00
17°
1012.8 hPa 10.6 mm
82%
16.9°
2
Windvlaag: 1.8 m/s
86%
07:00
17°
1013.3 hPa 11.0 mm
82%
16.7°
2
Windvlaag: 1 m/s
86% warningclass
08:00
17°
1013.6 hPa 11.6 mm
75%
16.5°
2
Windvlaag: 1.2 m/s
86%
09:00
18°
1013.7 hPa 12.6 mm
68%
16.6°
3
Windvlaag: 1.3 m/s
86%
10:00
18°
1014.2 hPa 14.4 mm
79%
16.9°
2
Windvlaag: 1.2 m/s
84%
11:00
19°
1014.6 hPa 15.2 mm
82%
17.3°
2
Windvlaag: 1.4 m/s
81%
12:00
19°
1014.7 hPa
82%
17.5°
2
Windvlaag: 0.4 m/s
77%
13:00
20°
1014.7 hPa
82%
17.7°
2
Windvlaag: 0.8 m/s
86%
14:00
20°
1014.7 hPa 18.2 mm
82%
18.0°
2
Windvlaag: 2.9 m/s
71%
15:00
20°
1014.7 hPa 21.0 mm
82%
17.3°
3
Windvlaag: 2.4 m/s
86%
16:00
20°
1014.7 hPa 22.4 mm
82%
17.5°
3
Windvlaag: 0.9 m/s
71% warningclass
17:00
20°
1014.9 hPa 21.1 mm
95%
17.4°
2
Windvlaag: 0.8 m/s
95% warningclass
18:00
20°
1015.1 hPa 20.6 mm
100%
17.6°
3
Windvlaag: 0.6 m/s
88% warningclass
19:00
20°
1015.6 hPa 20.3 mm
99%
17.3°
2
Windvlaag: 0.5 m/s
81% warningclass
20:00
20°
1016.0 hPa 19.9 mm
85%
17.3°
2
Windvlaag: 0.2 m/s
70%
21:00
19°
1016.8 hPa 32.6 mm
29%
16.7°
3
Windvlaag: 2.3 m/s
73%
22:00
19°
1017.5 hPa 32.5 mm
32%
15.3°
3
Windvlaag: 3.7 m/s
59%
23:00
18°
1017.9 hPa 19.7 mm
80%
14.1°
3
Windvlaag: 3.8 m/s
63%
 06:30     20:28    Daglengte: 13:58 Zaterdag 20 Aug
00:00
18°
1018.1 hPa
32%
13.9°
2
Windvlaag: 4.3 m/s
57%
01:00
17°
1018.2 hPa 32.9 mm
24%
13.1°
2
Windvlaag: 5.1 m/s
62%
02:00
17°
1018.0 hPa 33.4 mm
22%
13.4°
2
Windvlaag: 5.1 m/s
56%
03:00
17°
1017.8 hPa 33.4 mm
21%
13.2°
2
Windvlaag: 4.7 m/s
63%
04:00
16°
1017.8 hPa 33.5 mm
21%
13.0°
2
Windvlaag: 4.2 m/s
72%
05:00
16°
1017.8 hPa 33.8 mm
21%
12.9°
2
Windvlaag: 3.4 m/s
70%
06:00
16°
1017.7 hPa 33.1 mm
21%
12.8°
2
Windvlaag: 4 m/s
56%
07:00
16°
1018.1 hPa
21%
12.3°
2
Windvlaag: 4.4 m/s
26%
08:00
17°
1018.5 hPa
21%
11.9°
2
Windvlaag: 3.5 m/s
40%
09:00
18°
1018.6 hPa
21%
13.0°
1
Windvlaag: 3.9 m/s
57%
10:00
19°
1018.5 hPa 32.6 mm
72%
14.3°
2
Windvlaag: 3.6 m/s
42%
11:00
20°
1018.6 hPa
85%
15.2°
3
Windvlaag: 2.7 m/s
56%
12:00
20°
1018.9 hPa
89%
16.0°
3
Windvlaag: 3.2 m/s
68%
13:00
21°
1018.9 hPa
82%
15.1°
3
Windvlaag: 2.6 m/s
52%
14:00
21°
1018.6 hPa
90%
15.5°
3
Windvlaag: 2.5 m/s
93%
15:00
21°
1018.4 hPa
97%
15.6°
3
Windvlaag: 2.7 m/s
92%
16:00
21°
1018.3 hPa 33.2 mm
100%
13.4°
3
Windvlaag: 3.5 m/s
82%
17:00
21°
1018.0 hPa 33.0 mm
97%
12.7°
3
Windvlaag: 4.3 m/s
49%
18:00
21°
1018.0 hPa 32.9 mm
98%
12.5°
3
Windvlaag: 4.7 m/s
22%
19:00
21°
1018.4 hPa 33.0 mm
96%
12.5°
2
Windvlaag: 4.3 m/s
45%
20:00
20°
1018.8 hPa 33.1 mm
97%
12.8°
2
Windvlaag: 3.9 m/s
31%
21:00
19°
1019.2 hPa 33.0 mm
88%
13.6°
1
Windvlaag: 5.3 m/s
13%
22:00
18°
1019.3 hPa 32.9 mm
90%
13.9°
1
Windvlaag: 4.2 m/s
40%
23:00
17°
1019.1 hPa 32.9 mm
97%
13.8°
1
Windvlaag: 1.8 m/s
10%
 06:31     20:26    Daglengte: 13:55 Zondag 21 Aug
00:00
17°
1019.0 hPa 32.9 mm
97%
13.6°
0
Windvlaag: 1.3 m/s
37%
Temp/Neerslag /Baro Onweer/Dauwpunt
    Temp Baro Neerslag Dauwpunt Wind Bewolking  
 06:27     20:32    Daglengte: 14:05 Vandaag
02:00
18°
1012.3 hPa   17.7°
1
22%
05:00
17°
1011.5 hPa   16.3°
2
39%
08:00
17°
1011.6 hPa   16.1°
1
73%
11:00
19°
1012.0 hPa   17.6°
1
86%
14:00
21°
1011.6 hPa   18.3°
2
85%
17:00
22°
1011.0 hPa 8.0 mm 17.8°
2
70% warningclass
20:00
20°
1011.3 hPa 16.9 mm 17.1°
2
85% warningclass
23:00
19°
1012.7 hPa   16.7°
1
84%
 06:29     20:30    Daglengte: 14:01 Morgen
02:00
18°
1012.7 hPa   17.4°
2
51% warningclass
05:00
17°
1012.7 hPa 28.0 mm 17.0°
1
86%
08:00
17°
1013.6 hPa 33.3 mm 16.5°
2
86%
11:00
19°
1014.6 hPa 42.2 mm 17.3°
2
81%
14:00
20°
1014.7 hPa 18.2 mm 18.0°
2
71%
17:00
20°
1014.9 hPa 64.4 mm 17.4°
2
95% warningclass
20:00
20°
1016.0 hPa 60.7 mm 17.3°
2
70%
23:00
18°
1017.9 hPa 84.8 mm 14.1°
3
63%
 06:30     20:28    Daglengte: 13:58 Zaterdag 20 Aug
02:00
17°
1018.0 hPa 66.3 mm 13.4°
2
56%
05:00
16°
1017.8 hPa 100.7 mm 12.9°
2
70%
08:00
17°
1018.5 hPa 33.1 mm 11.9°
2
40%
11:00
20°
1018.6 hPa 32.6 mm 15.2°
3
56%
14:00
21°
1018.6 hPa   15.5°
3
93%
17:00
21°
1018.0 hPa 66.2 mm 12.7°
3
49%
20:00
20°
1018.8 hPa 99.0 mm 12.8°
2
31%
23:00
17°
1019.1 hPa 98.9 mm 13.8°
1
10%
 06:31     20:26    Daglengte: 13:55 Zondag 21 Aug
02:00
16°
1018.8 hPa 98.8 mm 13.9°
1
55%
05:00
13°
1017.5 hPa 80.1 mm 13.0°
1
1%
08:00
15°
1017.6 hPa 80.1 mm 14.1°
0
1%
11:00
20°
1016.4 hPa 80.3 mm 15.0°
1
1%
14:00
22°
1015.2 hPa 81.8 mm 13.4°
1
1%
17:00
22°
1014.7 hPa 83.7 mm 11.7°
2
1%
20:00
17°
1015.6 hPa 85.3 mm 13.4°
1
1%
23:00
15°
1016.9 hPa 86.2 mm 13.5°
1
1%
 06:33     20:24    Daglengte: 13:51 Maandag 22 Aug
02:00
14°
1016.2 hPa 86.2 mm 13.1°
0
1%
05:00
13°
1016.5 hPa 86.2 mm 12.6°
1
1%
08:00
14°
1017.1 hPa 86.2 mm 13.1°
0
1%
11:00
20°
1016.6 hPa 86.2 mm 10.9°
2
0%
14:00
24°
1015.4 hPa 86.2 mm 11.1°
3
0%
17:00
24°
1014.6 hPa 86.2 mm 10.7°
3
1%
20:00
19°
1015.7 hPa 86.2 mm 11.2°
2
1%
23:00
15°
1016.9 hPa 86.2 mm 9.9°
1
1%
 06:34     20:23    Daglengte: 13:49 Dinsdag 23 Aug
02:00
13°
1017.4 hPa 86.2 mm 10.7°
1
0%
05:00
11°
1018.3 hPa 86.2 mm 10.2°
1
0%
08:00
13°
1018.9 hPa 86.2 mm 10.8°
1
0%
11:00
21°
1017.8 hPa 86.2 mm 11.8°
2
0%
14:00
25°
1016.4 hPa 86.2 mm 8.3°
4
0%
17:00
25°
1015.7 hPa 86.2 mm 8.7°
4
0%
20:00
18°
1016.4 hPa 86.2 mm 11.9°
2
0%
23:00
14°
1017.8 hPa 86.2 mm 10.1°
1
0%
 06:35     20:21    Daglengte: 13:46 Woensdag 24 Aug
02:00
12°
1017.8 hPa 86.2 mm 9.6°
1
0%
05:00
11°
1018.0 hPa 86.2 mm 9.4°
1
0%
08:00
13°
1018.4 hPa 86.2 mm 9.9°
1
0%
11:00
20°
1017.7 hPa 86.2 mm 10.8°
2
1%
14:00
25°
1016.1 hPa 86.2 mm 10.0°
3
1%
17:00
26°
1015.4 hPa 86.2 mm 9.7°
3
1%
20:00
19°
1016.1 hPa 86.2 mm 13.1°
1
0%
23:00
15°
1017.7 hPa   12.0°
1
0%
 06:37     20:19    Daglengte: 13:42 Donderdag 25 Aug
02:00
13°
1017.6 hPa 172.4 mm 11.9°
1
0%
08:00
14°
1018.5 hPa 172.4 mm 12.3°
0
0%
14:00
26°
1016.2 hPa 172.4 mm 13.0°
1
0%
20:00
21°
1015.6 hPa 172.4 mm 13.4°
0
0%
 06:38     20:17    Daglengte: 13:39 Vrijdag 26 Aug
02:00
15°
1017.1 hPa 172.4 mm 13.1°
1
0%
08:00
16°
1016.9 hPa 172.4 mm 13.6°
0
0%
14:00
28°
Voelt als: 28.3°
1014.2 hPa 172.4 mm 14.6°
1
1%
20:00
22°
1013.2 hPa 172.4 mm 15.2°
1
0%
 06:39     20:15    Daglengte: 13:36 Zaterdag 27 Aug
02:00
17°
1014.9 hPa 172.5 mm 14.9°
1
1%
08:00
17°
1016.4 hPa 173.6 mm 15.9°
1
1%
14:00
29°
1015.1 hPa 173.9 mm 16.0°
1
1%
20:00
21°
1018.5 hPa 1.1 mm 13.0°
1
47%
 06:41     20:13    Daglengte: 13:32 Zondag 28 Aug
02:00
17°
1019.7 hPa 0.7 mm 12.6°
0
56%
08:00
17°
1020.0 hPa 0.6 mm 13.6°
0
57%
14:00
25°
1018.8 hPa 0.5 mm 13.8°
1
52%
20:00
21°
1019.4 hPa 1.0 mm 13.3°
1
45%
 06:42     20:11    Daglengte: 13:29 Maandag 29 Aug
02:00
16°
1020.5 hPa 0.8 mm 12.7°
0
54%
08:00
16°
1020.5 hPa 1.0 mm 13.1°
0
51%
14:00
25°
1019.3 hPa 0.8 mm 13.3°
1
48%
20:00
20°
1019.3 hPa 1.0 mm 12.5°
1
54%
 06:43     20:09    Daglengte: 13:26 Dinsdag 30 Aug
02:00
16°
1020.3 hPa 0.6 mm 11.8°
0
59%
08:00
16°
1020.1 hPa 0.4 mm 12.4°
0
50%
14:00
24°
1018.4 hPa 0.5 mm 12.6°
1
50%
20:00
19°
1018.4 hPa 1.7 mm 12.4°
0
53%
 06:45     20:07    Daglengte: 13:22 Woensdag 31 Aug
02:00
15°
1019.4 hPa 0.8 mm 11.4°
0
48%
08:00
15°
1019.0 hPa 0.4 mm 12.0°
0
49%
14:00
24°
1017.2 hPa 0.4 mm 11.7°
1
45%
20:00
19°
1017.5 hPa 1.8 mm 12.1°
1
48%
 06:46     20:05    Daglengte: 13:19 Donderdag 01 Sep
02:00
15°
1018.9 hPa 0.8 mm 10.9°
0
46%
08:00
14°
1019.0 hPa 0.4 mm 10.9°
0
48%
14:00
23°
1017.5 hPa 0.7 mm 10.9°
1
39%
20:00
18°
1018.0 hPa 0.8 mm 10.6°
1
41%
  CAPE Lifted Index Hail Supercell Tornado SRH 3km CL BTM PRES CL TOP PRES Swiss DWD icon SMHI TS
 06:27     20:32    Daglengte: 14:05 Vandaag
01:00 0 J/kg -2.3 K 0 % 0 % 0 % 0 m²/s² 0 0 -1.91 3
02:00 1 J/kg -1.8 K 0 % 0 % 0 % 0 m²/s² 0 0 -0.99 2
03:00 2 J/kg -0.6 K 0 % 0 % 0 % 0 m²/s² 0 0 -0.03 2
04:00 1 J/kg -0.6 K 0 % 0 % 0 % 0 m²/s² 0 0 -0.39 3
05:00 0 J/kg -0.1 K 0 % 0 % 0 % 0 m²/s² 0 0 -0.01 3
06:00 0 J/kg -0.9 K 0 % 0 % 0 % 0 m²/s² 0 0 -0.9 3
07:00 1 J/kg 0.1 K 0 % 0 % 0 % 0 m²/s² 0 0 1.78 3
08:00 2 J/kg 0.6 K 0 % 0 % 0 % 0 m²/s² 0 0 2.61 3
09:00 8 J/kg -0.2 K 0 % 0 % 0 % 0 m²/s² 0 0 0.67 3
10:00 5 J/kg 0.0 K 0 % 0 % 0 % 0 m²/s² 0 0 1.5 3
11:00 101 J/kg -0.3 K 0 % 0 % 0 % 0 m²/s² 0 0 0.51 3
12:00 142 J/kg -0.6 K 0 % 0 % 0 % 0 m²/s² 0 0 0.3 3
13:00 250 J/kg -1.4 K 0 % 0 % 0 % 0 m²/s² 0 0 0.28 3
14:00 261 J/kg -0.9 K 0 % 0 % 0 % 0 m²/s² 0 0 0.51 3
15:00 302 J/kg -1.7 K 0 % 0 % 0 % 0 m²/s² 0 0 -1.07 3
16:00 353 J/kg -2.4 K 0 % 0 % 0 % 0 m²/s² 0 0 -2.01 3
17:00 447 J/kg -2.6 K 0 % 0 % 0 % 0 m²/s² 0 0 -2.3 95
18:00 145 J/kg -0.6 K 0 % 0 % 0 % 0 m²/s² 0 0 -0.33 95
19:00 135 J/kg -0.6 K 0 % 0 % 0 % 0 m²/s² 0 0 -0.33 95
20:00 247 J/kg -1.2 K 0 % 0 % 0 % 0 m²/s² 0 0 -1.17 95
21:00 360 J/kg -2.0 K 0 % 0 % 0 % 0 m²/s² 0 0 -1.97 95
22:00 403 J/kg -1.8 K 0 % 0 % 0 % 0 m²/s² 0 0 -1.8 80
23:00 370 J/kg -1.8 K 0 % 0 % 0 % 0 m²/s² 0 0 -1.8 80
 06:29     20:30    Daglengte: 14:01 Morgen
00:00 368 J/kg -1.5 K 0 % 0 % 0 % 0 m²/s² 0 0 -1.11 95
01:00 256 J/kg -1.0 K 0 % 0 % 0 % 0 m²/s² 0 0 -0.46 80
02:00 152 J/kg -0.9 K 0 % 0 % 0 % 0 m²/s² 0 0 0.72 95
03:00 36 J/kg -0.7 K 0 % 0 % 0 % 0 m²/s² 0 0 1.49 95
04:00 64 J/kg -1.4 K 0 % 0 % 0 % 0 m²/s² 0 0 -0.17 95
05:00 39 J/kg -1.4 K 0 % 0 % 0 % 0 m²/s² 0 0 -0.29 61
06:00 0 J/kg -1.1 K 0 % 0 % 0 % 0 m²/s² 0 0 -0.62 61
07:00 0 J/kg -1.1 K 0 % 0 % 0 % 0 m²/s² 0 0 -0.98 95
08:00 0 J/kg -1.0 K 0 % 0 % 0 % 0 m²/s² 0 0 -1 80
09:00 0 J/kg -1.7 K 0 % 0 % 0 % 0 m²/s² 0 0 -1.7 3
10:00 0 J/kg -0.2 K 0 % 0 % 0 % 0 m²/s² 0 0 -0.02 80
11:00 0 J/kg -1.3 K 0 % 0 % 0 % 0 m²/s² 0 0 -1.3 80
12:00 59 J/kg -0.9 K 0 % 0 % 0 % 0 m²/s² 0 0 -0.9 3
13:00 178 J/kg -1.2 K 0 % 0 % 0 % 0 m²/s² 0 0 -1.2 3
14:00 387 J/kg -1.8 K 0 % 0 % 0 % 0 m²/s² 0 0 -1.8 3
15:00 501 J/kg -1.8 K 0 % 0 % 0 % 0 m²/s² 0 0 -1.8 63
16:00 579 J/kg -2.1 K 0 % 0 % 0 % 0 m²/s² 0 0 -2.07 61
17:00 711 J/kg -2.8 K 0 % 0 % 0 % 0 m²/s² 0 0 -2.77 80
18:00 743 J/kg -3.2 K 0 % 0 % 0 % 0 m²/s² 0 0 -2.99 95
19:00 537 J/kg -2.7 K 0 % 0 % 0 % 0 m²/s² 0 0 -2.13 2
20:00 605 J/kg -2.4 K 0 % 0 % 0 % 0 m²/s² 0 0 -1.86 3
21:00 354 J/kg -0.9 K 0 % 0 % 0 % 0 m²/s² 0 0 0.12 2
22:00 138 J/kg 0.1 K 0 % 0 % 0 % 0 m²/s² 0 0 1.81 2
23:00 48 J/kg 1.5 K 0 % 0 % 0 % 0 m²/s² 0 0 3.33 2
 06:30     20:28    Daglengte: 13:58 Zaterdag 20 Aug
00:00 0 J/kg 1.9 K 0 % 0 % 0 % 0 m²/s² 0 0 4.12 2
01:00 0 J/kg 1.9 K 0 % 0 % 0 % 0 m²/s² 0 0 4.42 1
02:00 0 J/kg 2.2 K 0 % 0 % 0 % 0 m²/s² 0 0 4.45 1
03:00 0 J/kg 1.9 K 0 % 0 % 0 % 0 m²/s² 0 0 3.43 1
04:00 0 J/kg 2.0 K 0 % 0 % 0 % 0 m²/s² 0 0 3.38 2
05:00 0 J/kg 1.3 K 0 % 0 % 0 % 0 m²/s² 0 0 2.68 2
06:00 0 J/kg 1.1 K 0 % 0 % 0 % 0 m²/s² 0 0 2.48 1
07:00 0 J/kg 0.9 K 0 % 0 % 0 % 0 m²/s² 0 0 2.34 2
08:00 0 J/kg 0.6 K 0 % 0 % 0 % 0 m²/s² 0 0 1.71 2
09:00 1 J/kg 0.8 K 0 % 0 % 0 % 0 m²/s² 0 0 1.46 2
10:00 33 J/kg 0.4 K 0 % 0 % 0 % 0 m²/s² 0 0 1.12 80
11:00 160 J/kg -0.5 K 0 % 0 % 0 % 0 m²/s² 0 0 0.22 3
12:00 286 J/kg -0.9 K 0 % 0 % 0 % 0 m²/s² 0 0 -0.51 3
13:00 428 J/kg -1.2 K 0 % 0 % 0 % 0 m²/s² 0 0 -0.72 3
14:00 483 J/kg -1.3 K 0 % 0 % 0 % 0 m²/s² 0 0 -0.58 3
15:00 547 J/kg -1.8 K 0 % 0 % 0 % 0 m²/s² 0 0 -1.23 80
16:00 556 J/kg -1.9 K 0 % 0 % 0 % 0 m²/s² 0 0 -1.18 3
17:00 540 J/kg -2.0 K 0 % 0 % 0 % 0 m²/s² 0 0 -0.8 3
18:00 612 J/kg -2.2 K 0 % 0 % 0 % 0 m²/s² 0 0 0.56 2
19:00 636 J/kg -2.3 K 0 % 0 % 0 % 0 m²/s² 0 0 1.42 3
20:00 636 J/kg -2.3 K 0 % 0 % 0 % 0 m²/s² 0 0 2.02 80
21:00 478 J/kg -1.8 K 0 % 0 % 0 % 0 m²/s² 0 0 3 2
22:00 341 J/kg -1.3 K 0 % 0 % 0 % 0 m²/s² 0 0 3.47 3
23:00 93 J/kg -0.3 K 0 % 0 % 0 % 0 m²/s² 0 0 5.31 3
 06:31     20:26    Daglengte: 13:55 Zondag 21 Aug
00:00 43 J/kg 0.0 K 0 % 0 % 0 % 0 m²/s² 0 0 6.09 2
Temp Baro Wind Neerslag
  EWN Forecast EWN WRFDA DWD ICON FMI HIRLAM MET Norway GFS
 06:27     20:32    Daglengte: 14:05 Vandaag
02:00 18.3° 1012.3 hPa 1.0 m/s 0.0 mm 16.8° 1012.6 hPa 2.4 m/s 24.1 mm 18.9° 1013.6 hPa 0.5 m/s -1.3 mm 17.6° 1012.1 hPa 1.6 m/s 0.0 mm 16.9° 1014.4 hPa 1.3 m/s
05:00 16.8° 1011.5 hPa 1.7 m/s 0.0 mm 16.2° 1011.4 hPa 2.8 m/s 49.8 mm 16.7° 1012.6 hPa 1.3 m/s 0.0 mm 16.4° 1010.7 hPa 1.9 m/s 0.0 mm 16.8° 1013.5 hPa 1.0 m/s
08:00 17.0° 1011.6 hPa 1.1 m/s 0.0 mm 16.4° 1010.4 hPa 1.4 m/s 51.7 mm 16.9° 1012.9 hPa 1.2 m/s 0.0 mm 16.2° 1011.1 hPa 1.4 m/s 0.0 mm 17.1° 1014.1 hPa 0.6 m/s
11:00 19.4° 1012.0 hPa 0.7 m/s 0.0 mm 19.7° 1012.0 hPa 1.4 m/s 52.4 mm 19.4° 1013.4 hPa 1.8 m/s 0.0 mm 17.9° 1011.8 hPa 0.4 m/s 0.0 mm 19.7° 1013.6 hPa 1.0 m/s
14:00 21.4° 1011.6 hPa 2.0 m/s 0.0 mm 23.1° 1009.0 hPa 2.7 m/s 52.6 mm 21.0° 1012.6 hPa 1.2 m/s 0.2 mm 19.8° 1011.8 hPa 1.8 m/s 0.0 mm 21.4° 1012.2 hPa 1.9 m/s
17:00 21.7° 1011.0 hPa 1.5 m/s 8.0 mm 23.5° 1008.3 hPa 1.6 m/s 52.8 mm 19.8° 1012.2 hPa 1.3 m/s 1.8 mm 21.7° 1010.0 hPa 1.3 m/s 0.0 mm 19.7° 1012.0 hPa 1.3 m/s
20:00 20.0° 1011.3 hPa 1.6 m/s 16.9 mm 19.5° 1008.5 hPa 1.7 m/s 112.6 mm 18.5° 1012.5 hPa 0.9 m/s 4.9 mm 21.5° 1010.5 hPa 1.5 m/s 0.0 mm 18.1° 1012.2 hPa 1.4 m/s
23:00 18.6° 1012.7 hPa 1.3 m/s 0.0 mm 18.7° 1009.4 hPa 1.3 m/s 124.0 mm 17.9° 1013.4 hPa 0.9 m/s 5.0 mm 20.9° 1011.1 hPa 1.2 m/s 0.0 mm 17.0° 1012.8 hPa 1.0 m/s
 06:29     20:30    Daglengte: 14:01 Morgen
02:00 17.9° 1012.7 hPa 1.5 m/s 0.0 mm 17.8° 1009.5 hPa 3.0 m/s 128.2 mm 17.2° 1013.6 hPa 1.3 m/s 3.2 mm 19.0° 1010.9 hPa 1.3 m/s 0.0 mm 16.4° 1013.0 hPa 0.7 m/s
05:00 17.3° 1012.7 hPa 1.4 m/s 28.0 mm 17.3° 1009.2 hPa 2.9 m/s 129.1 mm 17.2° 1013.4 hPa 1.1 m/s 4.0 mm 17.3° 1011.2 hPa 0.9 m/s 0.0 mm 16.4° 1012.4 hPa 0.9 m/s
08:00 17.3° 1013.6 hPa 2.2 m/s 33.3 mm 16.5° 1009.5 hPa 4.9 m/s 147.0 mm 17.3° 1014.9 hPa 1.9 m/s 5.4 mm 18.2° 1012.2 hPa 1.9 m/s 0.0 mm 16.3° 1013.2 hPa 1.4 m/s
11:00 18.8° 1014.6 hPa 2.3 m/s 42.2 mm 17.1° 1011.2 hPa 5.3 m/s 205.5 mm 19.2° 1016.1 hPa 1.7 m/s 1.1 mm 19.6° 1013.5 hPa 1.9 m/s 0.0 mm 16.7° 1015.2 hPa 1.8 m/s
14:00 20.2° 1014.7 hPa 2.5 m/s 18.2 mm 17.8° 1012.5 hPa 3.4 m/s 253.1 mm 20.7° 1016.6 hPa 2.5 m/s 0.2 mm 20.9° 1013.9 hPa 2.5 m/s 0.0 mm 17.8° 1015.9 hPa 2.5 m/s
17:00 20.4° 1014.9 hPa 2.1 m/s 64.4 mm 20.6° 1014.0 hPa 1.8 m/s 285.6 mm 20.5° 1016.4 hPa 2.0 m/s 10.4 mm 17.6° 1016.4 hPa 2.5 m/s
20:00 19.5° 1016.0 hPa 1.8 m/s 60.7 mm 19.6° 1014.3 hPa 1.8 m/s 291.6 mm 19.7° 1017.7 hPa 1.2 m/s 2.0 mm 16.9° 1016.9 hPa 1.8 m/s
23:00 18.2° 1017.9 hPa 2.5 m/s 84.8 mm 18.8° 1016.0 hPa 2.6 m/s 292.2 mm 18.2° 1018.5 hPa 1.2 m/s 0.2 mm 15.8° 1018.2 hPa 1.7 m/s
 06:30     20:28    Daglengte: 13:58 Zaterdag 20 Aug
02:00 16.8° 1018.0 hPa 2.4 m/s 66.3 mm 16.1° 1015.9 hPa 3.0 m/s 292.2 mm 17.2° 1018.6 hPa 1.0 m/s 0.0 mm 15.1° 1018.0 hPa 1.7 m/s
05:00 16.4° 1017.8 hPa 1.7 m/s 100.7 mm 14.9° 1016.1 hPa 3.0 m/s 292.2 mm 16.5° 1018.5 hPa 0.9 m/s 0.0 mm 14.8° 1017.7 hPa 1.0 m/s
08:00 16.9° 1018.5 hPa 1.6 m/s 33.1 mm 16.8° 1017.1 hPa 3.2 m/s 292.2 mm 16.9° 1019.4 hPa 0.1 m/s 0.0 mm 15.9° 1017.9 hPa 0.8 m/s
11:00 20.1° 1018.6 hPa 2.7 m/s 32.6 mm 19.8° 1018.0 hPa 3.8 m/s 292.2 mm 20.5° 1019.2 hPa 2.8 m/s 0.3 mm 21.3° 1017.3 hPa 2.0 m/s
14:00 20.8° 1018.6 hPa 2.6 m/s 0.0 mm 20.5° 1017.6 hPa 2.0 m/s 293.1 mm 20.9° 1018.8 hPa 2.8 m/s 0.1 mm 21.6° 1017.7 hPa 3.1 m/s
17:00 21.5° 1018.0 hPa 3.0 m/s 66.2 mm 23.0° 1016.8 hPa 2.0 m/s 295.2 mm 21.1° 1018.4 hPa 3.3 m/s 0.9 mm 21.8° 1017.1 hPa 1.6 m/s
20:00 19.7° 1018.8 hPa 1.5 m/s 99.0 mm 21.8° 1016.5 hPa 2.3 m/s 295.3 mm 19.2° 1019.4 hPa 1.3 m/s 0.9 mm 18.3° 1017.7 hPa 0.2 m/s
23:00 17.2° 1019.1 hPa 0.5 m/s 98.9 mm 17.0° 1016.7 hPa 1.7 m/s 295.3 mm 17.3° 1019.8 hPa 0.2 m/s 0.7 mm 14.7° 1019.2 hPa 1.1 m/s
 06:31     20:26    Daglengte: 13:55 Zondag 21 Aug
02:00 16.4° 1018.8 hPa 0.8 m/s 98.8 mm 15.5° 1016.7 hPa 1.7 m/s 295.3 mm 16.7° 1019.4 hPa 0.6 m/s 0.6 mm 13.7° 1018.8 hPa 0.9 m/s
05:00 13.2° 1017.5 hPa 0.8 m/s 80.1 mm 13.2° 1017.5 hPa 0.8 m/s 80.1 mm
08:00 14.7° 1017.6 hPa 0.4 m/s 80.1 mm 14.7° 1017.6 hPa 0.4 m/s 80.1 mm
11:00 20.1° 1016.4 hPa 1.1 m/s 80.3 mm 20.1° 1016.4 hPa 1.1 m/s 80.3 mm
14:00 21.7° 1015.2 hPa 1.3 m/s 81.8 mm 21.7° 1015.2 hPa 1.3 m/s 81.8 mm
17:00 21.7° 1014.7 hPa 1.6 m/s 83.7 mm 21.7° 1014.7 hPa 1.6 m/s 83.7 mm
20:00 17.4° 1015.6 hPa 1.2 m/s 85.3 mm 17.4° 1015.6 hPa 1.2 m/s 85.3 mm
23:00 15.3° 1016.9 hPa 1.4 m/s 86.2 mm 15.4° 1016.9 hPa 1.4 m/s 86.2 mm
 06:33     20:24    Daglengte: 13:51 Maandag 22 Aug
02:00 14.4° 1016.2 hPa 0.3 m/s 86.2 mm 14.4° 1016.2 hPa 0.3 m/s 86.2 mm
05:00 13.3° 1016.5 hPa 1.0 m/s 86.2 mm 13.3° 1016.5 hPa 1.0 m/s 86.2 mm
08:00 14.4° 1017.1 hPa 0.3 m/s 86.2 mm 14.4° 1017.1 hPa 0.3 m/s 86.2 mm
11:00 20.1° 1016.6 hPa 1.7 m/s 86.2 mm 20.1° 1016.6 hPa 1.7 m/s 86.2 mm
14:00 24.1° 1015.4 hPa 2.7 m/s 86.2 mm 24.1° 1015.4 hPa 2.7 m/s 86.2 mm
17:00 24.1° 1014.6 hPa 2.7 m/s 86.2 mm 24.1° 1014.6 hPa 2.7 m/s 86.2 mm
20:00 19.3° 1015.7 hPa 1.9 m/s 86.2 mm 19.3° 1015.7 hPa 1.9 m/s 86.2 mm
23:00 15.1° 1016.9 hPa 1.3 m/s 86.2 mm 15.1° 1016.9 hPa 1.3 m/s 86.2 mm
 06:34     20:23    Daglengte: 13:49 Dinsdag 23 Aug
02:00 12.7° 1017.4 hPa 0.8 m/s 86.2 mm 12.7° 1017.4 hPa 0.8 m/s 86.2 mm
05:00 11.4° 1018.3 hPa 1.0 m/s 86.2 mm 11.4° 1018.3 hPa 1.0 m/s 86.2 mm
08:00 13.4° 1018.9 hPa 0.7 m/s 86.2 mm 13.4° 1018.9 hPa 0.7 m/s 86.2 mm
11:00 20.5° 1017.8 hPa 2.3 m/s 86.2 mm 20.5° 1017.8 hPa 2.3 m/s 86.2 mm
14:00 24.9° 1016.4 hPa 3.8 m/s 86.2 mm 24.9° 1016.4 hPa 3.8 m/s 86.2 mm
17:00 24.9° 1015.7 hPa 3.9 m/s 86.2 mm 24.9° 1015.7 hPa 3.9 m/s 86.2 mm
20:00 18.3° 1016.4 hPa 2.0 m/s 86.2 mm 18.3° 1016.4 hPa 2.0 m/s 86.2 mm
23:00 14.0° 1017.8 hPa 1.2 m/s 86.2 mm 14.0° 1017.8 hPa 1.2 m/s 86.2 mm
 06:35     20:21    Daglengte: 13:46 Woensdag 24 Aug
02:00 12.1° 1017.8 hPa 0.7 m/s 86.2 mm 12.1° 1017.8 hPa 0.7 m/s 86.2 mm
05:00 10.8° 1018.0 hPa 0.9 m/s 86.2 mm 10.8° 1018.0 hPa 0.9 m/s 86.2 mm
08:00 12.7° 1018.4 hPa 0.6 m/s 86.2 mm 12.7° 1018.4 hPa 0.6 m/s 86.2 mm
11:00 19.8° 1017.7 hPa 2.0 m/s 86.2 mm 19.8° 1017.7 hPa 2.0 m/s 86.2 mm
14:00 24.6° 1016.1 hPa 2.5 m/s 86.2 mm 24.6° 1016.1 hPa 2.5 m/s 86.2 mm
17:00 25.6° 1015.4 hPa 2.5 m/s 86.2 mm 25.6° 1015.4 hPa 2.5 m/s 86.2 mm
20:00 18.9° 1016.1 hPa 1.4 m/s 86.2 mm 18.9° 1016.1 hPa 1.4 m/s 86.2 mm
23:00 14.9° 1017.7 hPa 0.9 m/s 86.2 mm 14.9° 1017.7 hPa 0.9 m/s 86.2 mm
 06:37     20:19    Daglengte: 13:42 Donderdag 25 Aug
02:00 13.4° 1017.6 hPa 0.6 m/s 86.2 mm 13.4° 1017.6 hPa 0.6 m/s 86.2 mm
08:00 14.3° 1018.5 hPa 0.5 m/s 86.2 mm 14.3° 1018.5 hPa 0.5 m/s 86.2 mm
14:00 26.2° 1016.2 hPa 1.4 m/s 86.2 mm 26.2° 1016.2 hPa 1.4 m/s 86.2 mm
20:00 20.6° 1015.6 hPa 0.3 m/s 86.2 mm 20.6° 1015.6 hPa 0.3 m/s 86.2 mm
 06:38     20:17    Daglengte: 13:39 Vrijdag 26 Aug
02:00 15.5° 1017.1 hPa 0.7 m/s 86.2 mm 15.5° 1017.1 hPa 0.7 m/s 86.2 mm
08:00 16.3° 1016.9 hPa 0.4 m/s 86.2 mm 16.3° 1016.9 hPa 0.4 m/s 86.2 mm
14:00 28.4° 1014.2 hPa 1.1 m/s 86.2 mm 28.4° 1014.2 hPa 1.1 m/s 86.2 mm
20:00 22.2° 1013.2 hPa 1.0 m/s 86.2 mm 22.2° 1013.2 hPa 1.0 m/s 86.2 mm
 06:39     20:15    Daglengte: 13:36 Zaterdag 27 Aug
02:00 17.5° 1014.9 hPa 1.4 m/s 86.3 mm 17.5° 1014.9 hPa 1.4 m/s 86.3 mm
08:00 17.4° 1016.4 hPa 0.6 m/s 86.9 mm 17.4° 1016.4 hPa 0.6 m/s 86.9 mm
14:00 28.7° 1015.1 hPa 1.0 m/s 86.9 mm 28.7° 1015.1 hPa 1.0 m/s 86.9 mm
20:00 21.0° 1018.5 hPa 1.3 m/s 1.1 mm
 06:41     20:13    Daglengte: 13:32 Zondag 28 Aug
02:00 16.6° 1019.7 hPa 0.3 m/s 0.7 mm